Weather History for Hot Springs, VA

Change the Weather History Date:

Monday, September 23, 2013

  Actual Average Record
Temperature  
Mean Temperature 52 °F -  
Max Temperature 62 °F 63 °F 84 °F (2010)
Min Temperature 42 °F 49 °F 37 °F (2012)
Degree Days  
Heating Degree Days 13    
Growing Degree Days 2 (Base 50)    
Moisture  
Dew Point 47 °F    
Average Humidity 86    
Maximum Humidity 100    
Minimum Humidity 67    
Precipitation  
Precipitation 0.00 in - - ()
Sea Level Pressure  
Sea Level Pressure 30.12 in    
Wind  
Wind Speed 6 mph (WNW)    
Max Wind Speed 10 mph    
Max Gust Speed -    
Visibility 10 miles    
Events      
Averages and records for this station are not official NWS values.
T = Trace of Precipitation, MM = Missing Value Source: NWS Daily Summary

Daily Weather History Graph

Daily Weather History Graph

Search for Another Location

Airport:

Trip Planner

Search our weather history database for the weather conditions in past years. The results will help you decide how hot, cold, wet, or windy it might be!

Date:

Astronomy

Sep. 23, 2013 Rise Set
Actual Time 7:08 AM EDT 7:14 PM EDT
Civil Twilight 6:41 AM EDT 7:40 PM EDT
Nautical Twilight 6:11 AM EDT 8:11 PM EDT
Astronomical Twilight 5:40 AM EDT 8:42 PM EDT
Moon 9:50 PM EDT (9/23) 11:21 AM EDT (9/23)
Length of Visible Light 12h 58m
Length of Day
12h 06m
Waning Gibbous, 81% of the Moon is Illuminated
Sep 23
Waning Gibbous
Sep 26
Last Quarter
Oct 4
New
Oct 11
First Quarter
Oct 18
Full

Hourly Weather History & Observations

Time (EDT) Temp. Windchill Dew Point Humidity Pressure Visibility Wind Dir Wind Speed Gust Speed Precip Events Conditions
12:15 AM 46.4 °F 42.9 °F 44.6 °F 93% 30.05 in 10.0 mi NW 6.9 mph - N/A   Clear
12:35 AM 46.4 °F 42.9 °F 44.6 °F 93% 30.05 in 10.0 mi NW 6.9 mph - N/A   Clear
12:55 AM 46.4 °F 43.5 °F 44.6 °F 93% 30.05 in 10.0 mi NW 5.8 mph - N/A   Clear
1:15 AM 46.4 °F 42.9 °F 44.6 °F 93% 30.05 in 10.0 mi WNW 6.9 mph - N/A   Clear
1:56 AM 46.4 °F 42.9 °F 44.6 °F 93% 30.06 in 10.0 mi WNW 6.9 mph - N/A   Clear
2:16 AM 46.4 °F 42.9 °F 44.6 °F 93% 30.06 in 10.0 mi WNW 6.9 mph - N/A   Clear
2:36 AM 44.6 °F 41.4 °F 44.6 °F 100% 30.06 in 10.0 mi WNW 5.8 mph - N/A   Clear
2:55 AM 44.6 °F 40.2 °F 44.6 °F 100% 30.06 in 10.0 mi NW 8.1 mph - N/A   Clear
2:56 AM 44.6 °F 40.2 °F 44.6 °F 100% 30.06 in 10.0 mi WNW 8.1 mph - N/A   Clear
3:15 AM 44.6 °F 40.7 °F 44.6 °F 100% 30.06 in 10.0 mi WNW 6.9 mph - N/A   Clear
3:35 AM 44.6 °F 40.7 °F 42.8 °F 93% 30.05 in 10.0 mi NW 6.9 mph - N/A   Clear
3:55 AM 44.6 °F 41.4 °F 42.8 °F 93% 30.05 in 10.0 mi WNW 5.8 mph - N/A   Clear
4:15 AM 44.6 °F 41.4 °F 42.8 °F 93% 30.06 in 10.0 mi WNW 5.8 mph - N/A   Clear
4:35 AM 44.6 °F 41.4 °F 42.8 °F 93% 30.06 in 10.0 mi WNW 5.8 mph - N/A   Clear
4:55 AM 42.8 °F 39.3 °F 42.8 °F 100% 30.06 in 10.0 mi WNW 5.8 mph - N/A   Clear
5:15 AM 42.8 °F 39.3 °F 42.8 °F 100% 30.07 in 10.0 mi WNW 5.8 mph - N/A   Clear
5:35 AM 44.6 °F 40.2 °F 42.8 °F 93% 30.08 in 10.0 mi West 8.1 mph - N/A   Clear
5:55 AM 44.6 °F 40.7 °F 42.8 °F 93% 30.08 in 10.0 mi WNW 6.9 mph - N/A   Clear
6:15 AM 44.6 °F 41.4 °F 42.8 °F 93% 30.08 in 10.0 mi NW 5.8 mph - N/A   Clear
6:35 AM 42.8 °F 40.1 °F 42.8 °F 100% 30.08 in 10.0 mi NW 4.6 mph - N/A   Clear
6:55 AM 42.8 °F 40.1 °F 42.8 °F 100% 30.09 in 10.0 mi WNW 4.6 mph - N/A   Clear
7:15 AM 44.6 °F 42.2 °F 41.0 °F 87% 30.09 in 10.0 mi WNW 4.6 mph - N/A   Clear
7:35 AM 44.6 °F 43.1 °F 42.8 °F 93% 30.10 in 10.0 mi NNW 3.5 mph - N/A   Clear
7:55 AM 44.6 °F 43.1 °F 42.8 °F 93% 30.11 in 10.0 mi NNW 3.5 mph - N/A   Clear
8:15 AM 46.4 °F 44.3 °F 42.8 °F 87% 30.11 in 10.0 mi North 4.6 mph - N/A   Clear
8:35 AM 46.4 °F - 42.8 °F 87% 30.12 in 10.0 mi Calm Calm - N/A   Clear
8:55 AM 48.2 °F - 42.8 °F 82% 30.12 in 10.0 mi Calm Calm - N/A   Scattered Clouds
9:15 AM 48.2 °F - 44.6 °F 87% 30.13 in 10.0 mi Calm Calm - N/A   Scattered Clouds
9:35 AM 46.4 °F - 44.6 °F 93% 30.13 in 10.0 mi Calm Calm - N/A   Mostly Cloudy
9:55 AM 46.4 °F - 44.6 °F 93% 30.13 in 10.0 mi Calm Calm - N/A   Mostly Cloudy
10:15 AM 48.2 °F - 44.6 °F 87% 30.14 in 10.0 mi Calm Calm - N/A   Overcast
10:35 AM 48.2 °F - 46.4 °F 93% 30.14 in 10.0 mi Calm Calm - N/A   Overcast
10:55 AM 50.0 °F - 46.4 °F 87% 30.14 in 10.0 mi WNW 4.6 mph - N/A   Overcast
11:15 AM 51.8 °F - 46.4 °F 82% 30.14 in 10.0 mi West 6.9 mph - N/A   Overcast
11:35 AM 51.8 °F - 46.4 °F 82% 30.15 in 10.0 mi West 9.2 mph - N/A   Mostly Cloudy
11:55 AM 51.8 °F - 46.4 °F 82% 30.15 in 10.0 mi West 9.2 mph - N/A   Scattered Clouds
12:15 PM 53.6 °F - 46.4 °F 77% 30.15 in 10.0 mi West 8.1 mph - N/A   Scattered Clouds
12:35 PM 53.6 °F - 46.4 °F 77% 30.15 in 10.0 mi West 6.9 mph - N/A   Scattered Clouds
12:55 PM 55.4 °F - 48.2 °F 77% 30.14 in 10.0 mi West 10.4 mph - N/A   Scattered Clouds
1:15 PM 55.4 °F - 46.4 °F 72% 30.14 in 10.0 mi West 8.1 mph - N/A   Clear
1:35 PM 55.4 °F - 46.4 °F 72% 30.13 in 10.0 mi West 9.2 mph - N/A   Clear
2:15 PM 57.2 °F - 48.2 °F 72% 30.13 in 10.0 mi West 8.1 mph - N/A   Clear
2:35 PM 59.0 °F - 48.2 °F 67% 30.13 in 10.0 mi West 6.9 mph - N/A   Clear
2:55 PM 60.8 °F - 50.0 °F 68% 30.13 in 10.0 mi WSW 3.5 mph - N/A   Scattered Clouds
3:15 PM 60.8 °F - 50.0 °F 68% 30.12 in 10.0 mi WNW 5.8 mph - N/A   Clear
3:35 PM 60.8 °F - 50.0 °F 68% 30.12 in 10.0 mi NW 5.8 mph - N/A   Clear
3:55 PM 62.6 °F - 51.8 °F 68% 30.12 in 10.0 mi NW 4.6 mph - N/A   Clear
4:15 PM 62.6 °F - 51.8 °F 68% 30.12 in 4.0 mi NW 5.8 mph - N/A   Haze
4:35 PM 60.8 °F - 50.0 °F 68% 30.12 in 10.0 mi Calm Calm - N/A   Clear
4:55 PM 62.6 °F - 51.8 °F 68% 30.13 in 10.0 mi WNW 6.9 mph - N/A   Clear
5:15 PM 62.6 °F - 51.8 °F 68% 30.13 in 10.0 mi West 4.6 mph - N/A   Clear
5:35 PM 62.6 °F - 51.8 °F 68% 30.13 in 10.0 mi WNW 4.6 mph - N/A   Clear
5:55 PM 62.6 °F - 51.8 °F 68% 30.13 in 10.0 mi WNW 3.5 mph - N/A   Clear
6:15 PM 60.8 °F - 51.8 °F 72% 30.14 in 10.0 mi West 4.6 mph - N/A   Clear
6:35 PM 60.8 °F - 51.8 °F 72% 30.14 in 10.0 mi Calm Calm - N/A   Clear
6:55 PM 57.2 °F - 51.8 °F 82% 30.14 in 10.0 mi South 3.5 mph - N/A   Clear
7:15 PM 57.2 °F - 50.0 °F 77% 30.14 in 10.0 mi Calm Calm - N/A   Clear
7:35 PM 53.6 °F - 50.0 °F 88% 30.14 in 10.0 mi Calm Calm - N/A   Clear
7:55 PM 53.6 °F - 48.2 °F 82% 30.15 in 10.0 mi SSE 3.5 mph - N/A   Clear
8:15 PM 53.6 °F - 48.2 °F 82% 30.15 in 10.0 mi SSE 3.5 mph - N/A   Clear
8:35 PM 53.6 °F - 50.0 °F 88% 30.15 in 10.0 mi East 3.5 mph - N/A   Clear
8:55 PM 51.8 °F - 51.8 °F 100% 30.16 in 10.0 mi ESE 3.5 mph - N/A   Clear
9:15 PM 51.8 °F - 50.0 °F 94% 30.16 in 10.0 mi East 4.6 mph - N/A   Clear
9:35 PM 51.8 °F - 50.0 °F 94% 30.16 in 10.0 mi ENE 8.1 mph - N/A   Clear
9:55 PM 50.0 °F - 48.2 °F 94% 30.17 in 10.0 mi ENE 4.6 mph - N/A   Scattered Clouds
10:15 PM 51.8 °F - 48.2 °F 88% 30.17 in 10.0 mi East 4.6 mph - N/A   Overcast
10:35 PM 50.0 °F - 48.2 °F 94% 30.17 in 10.0 mi East 4.6 mph - N/A   Overcast
10:55 PM 50.0 °F - 46.4 °F 87% 30.18 in 10.0 mi East 4.6 mph - N/A   Mostly Cloudy
11:15 PM 48.2 °F - 46.4 °F 93% 30.17 in 10.0 mi ENE 6.9 mph - N/A   Scattered Clouds
11:35 PM 48.2 °F - 46.4 °F 93% 30.17 in 10.0 mi ENE 5.8 mph - N/A   Scattered Clouds
11:55 PM 48.2 °F - 46.4 °F 93% 30.17 in 10.0 mi East 4.6 mph - N/A   Scattered Clouds